GW1098 Weather Reports


Display with metric or nautical units.
time (UTC)temp
F
wind
direction
speed
MPH
gust
MPH
rain 1hr
in
rain 24hr
in
rain mn
in
humidity
%
barometer
mb
20220813205832 102 333 1.0 2.0 0.00 0.00 0.00 13 1016.4
20220813205331 101 359 0.0 2.0 0.00 0.00 0.00 14 1016.4
20220813204830 102 119 2.0 3.0 0.00 0.00 0.00 13 1016.3
20220813204330 102 149 3.0 5.0 0.00 0.00 0.00 14 1016.1
20220813203830 102 135 0.0 2.0 0.00 0.00 0.00 15 1016.3
20220813203329 101 334 1.0 2.0 0.00 0.00 0.00 14 1016.4
20220813202827 100 167 2.0 3.0 0.00 0.00 0.00 16 1016.3
20220813202327 100 267 2.0 2.0 0.00 0.00 0.00 17 1016.4
20220813201826 100 139 1.0 2.0 0.00 0.00 0.00 17 1016.3
20220813201325 100 157 1.0 3.0 0.00 0.00 0.00 17 1016.4
20220813200825 100 7 0.0 5.0 0.00 0.00 0.00 18 1016.5
20220813200325 99 2 2.0 2.0 0.00 0.00 0.00 20 1016.6
20220813195825 99 112 2.0 6.0 0.00 0.00 0.00 21 1016.9
20220813195325 100 157 4.0 6.0 0.00 0.00 0.00 21 1016.6
20220813194824 98 345 0.0 1.0 0.00 0.00 0.00 22 1016.7
20220813194322 98 178 3.0 3.0 0.00 0.00 0.00 22 1016.7
20220813193821 98 182 1.0 3.0 0.00 0.00 0.00 23 1017.1
20220813193320 98 200 2.0 5.0 0.00 0.00 0.00 22 1016.7
20220813192818 99 204 2.0 3.0 0.00 0.00 0.00 23 1017.0
20220813192317 99 188 3.0 3.0 0.00 0.00 0.00 23 1017.0
20220813191816 98 7 1.0 3.0 0.00 0.00 0.00 23 1016.9
20220813191315 98 244 2.0 5.0 0.00 0.00 0.00 21 1016.9
20220813190814 98 281 2.0 3.0 0.00 0.00 0.00 21 1016.9
20220813190314 99 199 2.0 2.0 0.00 0.00 0.00 21 1016.9
20220813185813 100 25 1.0 2.0 0.00 0.00 0.00 19 1017.2
20220813185312 98 340 1.0 2.0 0.00 0.00 0.00 21 1016.9
20220813184812 98 354 2.0 3.0 0.00 0.00 0.00 21 1016.9
20220813184312 96 255 1.0 2.0 0.00 0.00 0.00 21 1016.9
20220813183810 96 217 2.0 5.0 0.00 0.00 0.00 21 1017.2
20220813183310 97 116 1.0 2.0 0.00 0.00 0.00 20 1016.9
20220813182810 96 175 1.0 2.0 0.00 0.00 0.00 20 1016.7
20220813182308 96 264 3.0 5.0 0.00 0.00 0.00 20 1017.2
20220813181808 98 11 3.0 3.0 0.00 0.00 0.00 20 1017.0
20220813181307 97 83 1.0 2.0 0.00 0.00 0.00 20 1017.0
20220813180806 98 56 2.0 3.0 0.00 0.00 0.00 19 1017.1
20220813180306 97 353 0.0 2.0 0.00 0.00 0.00 22 1017.0
20220813175805 96 318 1.0 2.0 0.00 0.00 0.00 21 1017.0
20220813175305 95 142 3.0 3.0 0.00 0.00 0.00 21 1016.9
20220813174804 96 140 2.0 3.0 0.00 0.00 0.00 21 1016.6
20220813174303 96 349 0.0 2.0 0.00 0.00 0.00 21 1016.9
20220813173801 96 200 2.0 2.0 0.00 0.00 0.00 21 1016.7
20220813173300 95 289 0.0 2.0 0.00 0.00 0.00 21 1016.9
20220813172758 96 161 2.0 3.0 0.00 0.00 0.00 21 1016.6
20220813172257 97 176 1.0 2.0 0.00 0.00 0.00 21 1016.7
20220813171757 96 203 1.0 2.0 0.00 0.00 0.00 20 1016.7
20220813171256 96 163 2.0 2.0 0.00 0.00 0.00 20 1016.5
20220813170756 96 350 0.0 2.0 0.00 0.00 0.00 21 1016.4
20220813170255 96 353 1.0 1.0 0.00 0.00 0.00 22 1016.7
20220813165754 96 354 0.0 1.0 0.00 0.00 0.00 22 1016.7
20220813165253 94 2 0.0 1.0 0.00 0.00 0.00 21 1016.6
20220813164752 95 355 0.0 1.0 0.00 0.00 0.00 21 1016.6
20220813164252 95 355 0.0 1.0 0.00 0.00 0.00 20 1016.5
20220813163751 94 356 0.0 1.0 0.00 0.00 0.00 21 1016.4
20220813163251 95 352 0.0 2.0 0.00 0.00 0.00 20 1016.3
20220813162751 94 357 0.0 1.0 0.00 0.00 0.00 20 1016.5
20220813162247 93 354 0.0 1.0 0.00 0.00 0.00 23 1016.6
20220813161746 92 153 0.0 1.0 0.00 0.00 0.00 22 1016.5
20220813161244 90 357 0.0 1.0 0.00 0.00 0.00 23 1016.6
20220813160745 89 357 0.0 0.0 0.00 0.00 0.00 26 1016.5
20220813160244 87 0 0.0 1.0 0.00 0.00 0.00 24 1016.7
20220813155743 86 358 1.0 1.0 0.00 0.00 0.00 25 1016.5
20220813155241 84 323 1.0 1.0 0.00 0.00 0.00 26 1016.6
20220813154741 83 351 1.0 1.0 0.00 0.00 0.00 26 1016.7
20220813154240 82 358 0.0 0.0 0.00 0.00 0.00 28 1016.6
20220813153739 82 356 0.0 1.0 0.00 0.00 0.00 27 1016.7
20220813153239 82 273 1.0 1.0 0.00 0.00 0.00 27 1016.7
20220813152739 81 359 0.0 0.0 0.00 0.00 0.00 28 1016.7
20220813152238 80 2 0.0 1.0 0.00 0.00 0.00 28 1016.9
20220813151738 79 355 0.0 0.0 0.00 0.00 0.00 30 1016.7
20220813151238 78 350 0.0 0.0 0.00 0.00 0.00 29 1016.6
20220813150737 78 350 0.0 0.0 0.00 0.00 0.00 32 1016.6
20220813150236 77 350 0.0 0.0 0.00 0.00 0.00 30 1016.5
20220813145735 77 350 0.0 0.0 0.00 0.00 0.00 30 1016.5
20220813145236 76 359 0.0 0.0 0.00 0.00 0.00 32 1016.5
20220813144735 75 350 0.0 0.0 0.00 0.00 0.00 33 1016.4
20220813144234 75 352 0.0 0.0 0.00 0.00 0.00 33 1016.6
20220813143733 74 353 0.0 0.0 0.00 0.00 0.00 31 1016.6
20220813143232 74 356 0.0 0.0 0.00 0.00 0.00 34 1016.7
20220813142731 74 356 0.0 1.0 0.00 0.00 0.00 38 1016.7
20220813142231 73 1 0.0 0.0 0.00 0.00 0.00 35 1016.5
20220813141729 72 359 0.0 1.0 0.00 0.00 0.00 39 1016.4
20220813141229 71 353 0.0 0.0 0.00 0.00 0.00 37 1016.3
20220813140727 71 353 0.0 0.0 0.00 0.00 0.00 41 1016.3
20220813140226 70 353 0.0 0.0 0.00 0.00 0.00 40 1016.2
20220813135726 70 353 0.0 0.0 0.00 0.00 0.00 39 1016.3
20220813135225 69 353 0.0 0.0 0.00 0.00 0.00 41 1016.2
20220813134723 69 354 0.0 0.0 0.00 0.00 0.00 39 1016.4
20220813134222 69 353 0.0 0.0 0.00 0.00 0.00 41 1016.3
20220813133722 69 354 0.0 0.0 0.00 0.00 0.00 36 1016.1
20220813133221 69 354 0.0 0.0 0.00 0.00 0.00 36 1016.2
20220813132720 69 357 0.0 0.0 0.00 0.00 0.00 36 1016.1
20220813132219 69 349 0.0 0.0 0.00 0.00 0.00 38 1016.2
20220813131719 70 349 0.0 0.0 0.00 0.00 0.00 38 1016.1
20220813131218 69 346 0.0 0.0 0.00 0.00 0.00 35 1016.2
20220813130717 68 343 0.0 0.0 0.00 0.00 0.00 36 1016.1
20220813130217 68 353 0.0 0.0 0.00 0.00 0.00 40 1016.2
20220813125715 69 353 0.0 0.0 0.00 0.00 0.00 38 1016.5
20220813125215 69 353 0.0 0.0 0.00 0.00 0.00 42 1016.1
20220813124713 69 353 0.0 0.0 0.00 0.00 0.00 39 1016.3
20220813124214 69 353 0.0 0.0 0.00 0.00 0.00 39 1016.2
20220813123713 68 353 0.0 0.0 0.00 0.00 0.00 43 1016.3
20220813123213 69 353 0.0 0.0 0.00 0.00 0.00 41 1016.3
20220813122712 69 353 0.0 0.0 0.00 0.00 0.00 44 1016.1
20220813122212 68 353 0.0 0.0 0.00 0.00 0.00 46 1016.0
20220813121711 68 353 0.0 0.0 0.00 0.00 0.00 42 1016.2
20220813121210 68 352 0.0 0.0 0.00 0.00 0.00 42 1016.0
20220813120710 69 352 0.0 0.0 0.00 0.00 0.00 44 1016.2
20220813120209 68 352 0.0 0.0 0.00 0.00 0.00 43 1015.9
20220813115709 68 352 0.0 0.0 0.00 0.00 0.00 42 1016.1
20220813115209 69 353 0.0 0.0 0.00 0.00 0.00 45 1016.1
20220813114707 69 353 0.0 0.0 0.00 0.00 0.00 43 1016.2
20220813114207 68 353 0.0 0.0 0.00 0.00 0.00 44 1016.1
20220813113706 68 352 0.0 0.0 0.00 0.00 0.00 47 1016.0
20220813113205 68 352 0.0 0.0 0.00 0.00 0.00 46 1016.0
20220813112703 68 352 0.0 0.0 0.00 0.00 0.00 46 1016.1
20220813112203 69 353 0.0 0.0 0.00 0.00 0.00 45 1016.2
20220813111702 69 357 0.0 0.0 0.00 0.00 0.00 44 1016.0
20220813111202 69 357 0.0 0.0 0.00 0.00 0.00 44 1015.7
20220813110701 69 357 0.0 0.0 0.00 0.00 0.00 43 1015.8
20220813110201 69 357 0.0 0.0 0.00 0.00 0.00 44 1015.9
20220813105701 69 350 0.0 0.0 0.00 0.00 0.00 45 1016.2
20220813105201 69 351 0.0 0.0 0.00 0.00 0.00 47 1015.8
20220813104700 69 351 0.0 0.0 0.00 0.00 0.00 46 1016.0
20220813104159 69 351 0.0 0.0 0.00 0.00 0.00 48 1015.9
20220813103658 69 354 0.0 0.0 0.00 0.00 0.00 47 1016.1
20220813103157 69 354 0.0 0.0 0.00 0.00 0.00 46 1016.1
20220813102657 69 355 0.0 0.0 0.00 0.00 0.00 45 1016.0
20220813102156 69 353 0.0 0.0 0.00 0.00 0.00 46 1015.8
20220813101657 69 349 0.0 0.0 0.00 0.00 0.00 46 1015.8
20220813101156 69 345 0.0 0.0 0.00 0.00 0.00 45 1015.9
20220813100655 69 346 0.0 0.0 0.00 0.00 0.00 46 1016.0
20220813100154 70 0 0.0 0.0 0.00 0.00 0.00 47 1015.9
20220813095654 70 1 0.0 0.0 0.00 0.00 0.00 47 1015.8
20220813095153 70 1 0.0 0.0 0.00 0.00 0.00 45 1016.0
20220813094652 70 1 0.0 0.0 0.00 0.00 0.00 48 1015.8
20220813094151 69 353 0.0 0.0 0.00 0.00 0.00 51 1016.0
20220813093651 69 352 0.0 0.0 0.00 0.00 0.00 53 1015.8
20220813093151 69 349 0.0 0.0 0.00 0.00 0.00 55 1016.0
20220813092649 69 345 0.0 0.0 0.00 0.00 0.00 54 1015.9
20220813092147 69 347 0.0 0.0 0.00 0.00 0.00 56 1016.1
20220813091646 69 348 0.0 0.0 0.00 0.00 0.00 59 1016.0
20220813091145 69 345 0.0 0.0 0.00 0.00 0.00 59 1016.1
20220813090642 69 345 0.0 0.0 0.00 0.00 0.00 60 1016.4
20220813090141 69 345 0.0 0.0 0.00 0.00 0.00 61 1016.2
20220813085640 69 345 0.0 0.0 0.00 0.00 0.00 60 1016.3
20220813085139 70 345 0.0 0.0 0.00 0.00 0.00 60 1016.3
20220813084637 70 345 0.0 0.0 0.00 0.00 0.00 59 1016.3
20220813084137 70 342 0.0 0.0 0.00 0.00 0.00 59 1016.4
20220813083637 70 345 0.0 0.0 0.00 0.00 0.00 59 1016.4
20220813083137 70 345 0.0 0.0 0.00 0.00 0.00 59 1016.2
20220813082637 70 350 0.0 0.0 0.00 0.00 0.00 59 1016.3
20220813082136 69 330 1.0 1.0 0.00 0.00 0.00 60 1016.3
20220813081635 69 349 0.0 0.0 0.00 0.00 0.00 60 1016.5
20220813081135 70 349 0.0 0.0 0.00 0.00 0.00 60 1016.2
20220813080635 70 347 0.0 0.0 0.00 0.00 0.00 59 1016.4
20220813080134 70 350 0.0 0.0 0.00 0.00 0.00 59 1016.5
20220813075634 71 350 0.0 0.0 0.00 0.00 0.00 58 1016.7
20220813075133 71 356 0.0 0.0 0.00 0.00 0.00 58 1017.0
20220813074632 71 356 0.0 0.0 0.00 0.00 0.00 57 1017.1
20220813074132 71 355 0.0 0.0 0.00 0.00 0.00 57 1016.6
20220813073630 71 3 0.0 0.0 0.00 0.00 0.00 56 1016.7
20220813073129 71 356 0.0 0.0 0.00 0.00 0.00 55 1016.6
20220813072627 72 350 0.0 0.0 0.00 0.00 0.00 54 1016.6
20220813072127 72 349 0.0 0.0 0.00 0.00 0.00 53 1016.7
20220813071626 72 1 0.0 1.0 0.00 0.00 0.00 52 1016.6
20220813071125 72 347 0.0 0.0 0.00 0.00 0.00 51 1016.7
20220813070623 72 343 0.0 1.0 0.00 0.00 0.00 50 1016.9
20220813070122 72 355 0.0 0.0 0.00 0.00 0.00 49 1016.7
20220813065621 72 355 0.0 0.0 0.00 0.00 0.00 47 1016.6
20220813065121 72 355 0.0 0.0 0.00 0.00 0.00 46 1016.5
20220813064620 72 355 0.0 0.0 0.00 0.00 0.00 46 1016.6
20220813064119 73 355 0.0 0.0 0.00 0.00 0.00 46 1016.5
20220813063619 73 355 0.0 0.0 0.00 0.00 0.00 45 1016.5
20220813063118 73 355 0.0 0.0 0.00 0.00 0.00 44 1016.4
20220813062616 73 355 0.0 0.0 0.00 0.00 0.00 43 1016.6
20220813062114 73 355 0.0 0.0 0.00 0.00 0.00 42 1016.3
20220813061614 73 355 0.0 0.0 0.00 0.00 0.00 42 1016.2
20220813061113 74 354 0.0 0.0 0.00 0.00 0.00 41 1016.4
20220813060612 74 354 0.0 0.0 0.00 0.00 0.00 40 1016.1
20220813060111 74 355 0.0 0.0 0.00 0.00 0.00 41 1016.0
20220813055610 74 355 0.0 0.0 0.00 0.00 0.00 41 1016.2
20220813055108 75 355 0.0 0.0 0.00 0.00 0.00 42 1016.3
20220813054607 75 354 0.0 0.0 0.00 0.00 0.00 41 1015.9
20220813054105 75 354 0.0 0.0 0.00 0.00 0.00 41 1016.0
20220813053605 75 354 0.0 0.0 0.00 0.00 0.00 40 1016.1
20220813053105 75 355 0.0 0.0 0.00 0.00 0.00 40 1016.0
20220813052603 76 355 0.0 0.0 0.00 0.00 0.00 40 1016.2
20220813052102 76 355 0.0 0.0 0.00 0.00 0.00 41 1016.2
20220813051602 76 355 0.0 0.0 0.00 0.00 0.00 41 1016.1
20220813051100 76 355 0.0 0.0 0.00 0.00 0.00 40 1016.1
20220813050559 77 355 0.0 0.0 0.00 0.00 0.00 40 1016.0
20220813050057 77 355 0.0 0.0 0.00 0.00 0.00 38 1015.8
20220813045556 77 355 0.0 0.0 0.00 0.00 0.00 39 1016.1
20220813045055 77 355 0.0 0.0 0.00 0.00 0.00 37 1015.9
20220813044554 77 355 0.0 0.0 0.00 0.00 0.00 37 1016.0
20220813044053 78 355 0.0 0.0 0.00 0.00 0.00 36 1015.9
20220813043552 78 355 0.0 0.0 0.00 0.00 0.00 36 1016.0
20220813043052 78 355 0.0 0.0 0.00 0.00 0.00 35 1016.0
20220813042552 78 355 0.0 0.0 0.00 0.00 0.00 36 1015.8
20220813042051 79 355 0.0 0.0 0.00 0.00 0.00 35 1015.9
20220813041550 79 355 0.0 0.0 0.00 0.00 0.00 35 1015.7
20220813041049 79 355 0.0 0.0 0.00 0.00 0.00 34 1015.8
20220813040549 80 355 0.0 0.0 0.00 0.00 0.00 34 1015.9
20220813040048 80 355 0.0 0.0 0.00 0.00 0.00 33 1015.6
20220813035547 80 355 0.0 0.0 0.00 0.00 0.00 34 1015.7
20220813035045 80 355 0.0 0.0 0.00 0.00 0.00 34 1015.6
20220813034544 80 355 0.0 0.0 0.00 0.00 0.00 31 1015.5
20220813034045 81 355 0.0 0.0 0.00 0.00 0.00 32 1015.5
20220813033543 81 354 0.0 0.0 0.00 0.00 0.00 31 1015.4
20220813033043 81 354 0.0 0.0 0.00 0.00 0.00 30 1015.1
20220813032542 82 351 0.0 0.0 0.00 0.00 0.00 30 1015.1
20220813032040 82 351 0.0 0.0 0.00 0.00 0.00 31 1015.1
20220813031539 83 351 0.0 0.0 0.00 0.00 0.00 29 1015.1
20220813031038 83 351 0.0 0.0 0.00 0.00 0.00 27 1015.1
20220813030537 84 351 0.0 0.0 0.00 0.00 0.00 26 1015.2
20220813030035 84 351 0.0 0.0 0.00 0.00 0.00 25 1015.0
20220813025534 85 351 0.0 0.0 0.00 0.00 0.00 25 1015.0
20220813025033 85 351 0.0 0.0 0.00 0.00 0.00 24 1015.1
20220813024532 86 351 0.0 0.0 0.00 0.00 0.00 25 1014.8
20220813024031 87 353 0.0 0.0 0.00 0.00 0.00 24 1014.9
20220813023530 87 355 0.0 0.0 0.00 0.00 0.00 22 1014.9
20220813023030 88 1 0.0 1.0 0.00 0.00 0.00 21 1014.5
20220813022530 88 358 0.0 0.0 0.00 0.00 0.00 21 1014.8
20220813022029 89 353 0.0 0.0 0.00 0.00 0.00 22 1014.9
20220813021528 89 354 0.0 1.0 0.00 0.00 0.00 20 1014.5
20220813021028 90 340 0.0 1.0 0.00 0.00 0.00 19 1015.0
20220813020526 90 353 0.0 0.0 0.00 0.00 0.00 20 1014.8
20220813020026 91 1 0.0 2.0 0.00 0.00 0.00 18 1014.8
20220813015524 91 354 0.0 1.0 0.00 0.00 0.00 20 1014.6
20220813015024 92 354 0.0 1.0 0.00 0.00 0.00 18 1014.7
20220813014522 92 97 2.0 2.0 0.00 0.00 0.00 18 1014.7
20220813014022 92 355 0.0 0.0 0.00 0.00 0.00 20 1014.5
20220813013520 92 350 0.0 1.0 0.00 0.00 0.00 18 1014.5
20220813013019 93 357 1.0 2.0 0.00 0.00 0.00 18 1014.7
20220813012518 93 353 0.0 1.0 0.00 0.00 0.00 18 1014.6
20220813012019 94 138 3.0 3.0 0.00 0.00 0.00 16 1014.5
20220813011518 94 342 1.0 2.0 0.00 0.00 0.00 16 1014.6
20220813011017 94 109 1.0 1.0 0.00 0.00 0.00 16 1014.6
20220813010516 94 346 1.0 2.0 0.00 0.00 0.00 18 1014.4
20220813010014 95 345 1.0 2.0 0.00 0.00 0.00 16 1014.2
20220813005514 95 196 1.0 2.0 0.00 0.00 0.00 15 1014.5
20220813005014 95 1 0.0 1.0 0.00 0.00 0.00 15 1014.5
20220813004513 95 355 0.0 1.0 0.00 0.00 0.00 15 1014.5
20220813004013 95 256 3.0 3.0 0.00 0.00 0.00 14 1014.7
20220813003511 95 138 1.0 3.0 0.00 0.00 0.00 13 1014.5
20220813003010 95 159 2.0 5.0 0.00 0.00 0.00 13 1014.5
20220813002509 95 359 1.0 2.0 0.00 0.00 0.00 14 1014.5
20220813002008 96 351 1.0 1.0 0.00 0.00 0.00 13 1014.5
20220813001507 96 346 1.0 2.0 0.00 0.00 0.00 13 1014.5
20220813001005 96 351 0.0 2.0 0.00 0.00 0.00 13 1014.5
20220813000504 96 32 0.0 2.0 0.00 0.00 0.00 13 1014.4
20220813000002 97 294 2.0 3.0 0.00 0.00 0.00 12 1014.1
20220812235503 98 35 0.0 3.0 0.00 0.00 0.00 12 1014.5
20220812235001 97 352 0.0 1.0 0.00 0.00 0.00 12 1014.4
20220812234500 97 351 1.0 2.0 0.00 0.00 0.00 12 1014.2
20220812234000 97 297 1.0 3.0 0.00 0.00 0.00 13 1014.6
20220812233459 97 209 1.0 5.0 0.00 0.00 0.00 13 1014.4
20220812232959 98 229 3.0 5.0 0.00 0.00 0.00 12 1014.4
20220812232458 100 191 2.0 3.0 0.00 0.00 0.00 12 1014.5
20220812231957 101 346 0.0 3.0 0.00 0.00 0.00 12 1014.2
20220812231457 101 167 1.0 2.0 0.00 0.00 0.00 11 1014.4
20220812230956 102 233 2.0 3.0 0.00 0.00 0.00 11 1014.5
20220812230456 101 220 2.0 5.0 0.00 0.00 0.00 11 1014.6
20220812225954 102 315 2.0 3.0 0.00 0.00 0.00 11 1014.7
20220812225452 103 317 1.0 3.0 0.00 0.00 0.00 11 1014.6
20220812224952 103 18 1.0 3.0 0.00 0.00 0.00 11 1014.7
20220812224450 103 173 3.0 3.0 0.00 0.00 0.00 11 1014.6
20220812223949 102 172 2.0 3.0 0.00 0.00 0.00 11 1014.7
20220812223449 102 345 2.0 6.0 0.00 0.00 0.00 11 1014.7
20220812222949 104 352 1.0 3.0 0.00 0.00 0.00 11 1014.9
20220812222448 104 337 0.0 1.0 0.00 0.00 0.00 9 1014.8
20220812221947 104 13 2.0 2.0 0.00 0.00 0.00 10 1014.6
20220812221446 104 4 1.0 3.0 0.00 0.00 0.00 9 1014.9
20220812220944 104 58 1.0 5.0 0.00 0.00 0.00 9 1014.7
20220812220443 104 343 0.0 1.0 0.00 0.00 0.00 10 1014.9
20220812215943 104 353 1.0 3.0 0.00 0.00 0.00 9 1015.2
20220812215442 102 35 0.0 1.0 0.00 0.00 0.00 10 1015.2
20220812214941 102 349 1.0 6.0 0.00 0.00 0.00 10 1015.4
20220812214440 102 203 2.0 3.0 0.00 0.00 0.00 10 1015.3
20220812213938 102 289 1.0 5.0 0.00 0.00 0.00 11 1015.3
20220812213438 101 217 1.0 5.0 0.00 0.00 0.00 11 1015.6
20220812212938 101 350 2.0 3.0 0.00 0.00 0.00 13 1015.6
20220812212437 101 282 1.0 5.0 0.00 0.00 0.00 14 1015.6
20220812211936 102 344 0.0 3.0 0.00 0.00 0.00 14 1015.6
20220812211434 103 256 1.0 1.0 0.00 0.00 0.00 14 1015.7
20220812210934 102 145 2.0 5.0 0.00 0.00 0.00 14 1015.7
20220812210432 102 233 0.0 2.0 0.00 0.00 0.00 12 1015.8